2023-12-26T00:00:00,mfh,16.05
2023-12-26T00:01:00,mfh,16.06
2023-12-26T00:02:00,mfh,15.96
2023-12-26T00:03:00,mfh,17.99
2023-12-26T00:04:00,mfh,18.80
2023-12-26T00:05:00,mfh,19.30
2023-12-26T00:06:00,mfh,18.73
2023-12-26T00:07:00,mfh,17.76
2023-12-26T00:08:00,mfh,17.93
2023-12-26T00:09:00,mfh,18.11
2023-12-26T00:10:00,mfh,17.43
2023-12-26T00:11:00,mfh,17.14
2023-12-26T00:12:00,mfh,17.20
2023-12-26T00:13:00,mfh,17.74
2023-12-26T00:14:00,mfh,17.72
2023-12-26T00:15:00,mfh,17.68
2023-12-26T00:16:00,mfh,17.79
2023-12-26T00:17:00,mfh,18.24
2023-12-26T00:18:00,mfh,18.32
2023-12-26T00:19:00,mfh,19.05
2023-12-26T00:20:00,mfh,19.76
2023-12-26T00:21:00,mfh,19.18
2023-12-26T00:22:00,mfh,19.06
2023-12-26T00:23:00,mfh,19.68
2023-12-26T00:24:00,mfh,19.47
2023-12-26T00:25:00,mfh,17.78
2023-12-26T00:26:00,mfh,17.79
2023-12-26T00:27:00,mfh,17.77
2023-12-26T00:28:00,mfh,17.13
2023-12-26T00:29:00,mfh,17.09
2023-12-26T00:30:00,mfh,17.47
2023-12-26T00:31:00,mfh,17.41
2023-12-26T00:32:00,mfh,17.61
2023-12-26T00:33:00,mfh,17.82
2023-12-26T00:34:00,mfh,17.83
2023-12-26T00:35:00,mfh,18.23
2023-12-26T00:36:00,mfh,16.06
2023-12-26T00:37:00,mfh,15.99
2023-12-26T00:38:00,mfh,15.29
2023-12-26T00:39:00,mfh,15.25
2023-12-26T00:40:00,mfh,15.24
2023-12-26T00:41:00,mfh,15.25
2023-12-26T00:42:00,mfh,16.77
2023-12-26T00:43:00,mfh,15.82
2023-12-26T00:44:00,mfh,15.88
2023-12-26T00:45:00,mfh,15.83
2023-12-26T00:46:00,mfh,15.98
2023-12-26T00:47:00,mfh,16.32
2023-12-26T00:48:00,mfh,15.52
2023-12-26T00:49:00,mfh,15.51
2023-12-26T00:50:00,mfh,15.41
2023-12-26T00:51:00,mfh,15.90
2023-12-26T00:52:00,mfh,15.92
2023-12-26T00:53:00,mfh,16.07
2023-12-26T00:54:00,mfh,16.36
2023-12-26T00:55:00,mfh,16.71
2023-12-26T00:56:00,mfh,15.79
2023-12-26T00:57:00,mfh,15.15
2023-12-26T00:58:00,mfh,15.11
2023-12-26T00:59:00,mfh,15.18
2023-12-26T01:00:00,mfh,15.75
2023-12-26T01:01:00,mfh,15.99
2023-12-26T01:02:00,mfh,15.85
2023-12-26T01:03:00,mfh,15.81
2023-12-26T01:04:00,mfh,15.65
2023-12-26T01:05:00,mfh,15.60
2023-12-26T01:06:00,mfh,16.05
2023-12-26T01:07:00,mfh,14.87
2023-12-26T01:08:00,mfh,14.82
2023-12-26T01:09:00,mfh,15.66
2023-12-26T01:10:00,mfh,15.67
2023-12-26T01:11:00,mfh,15.66
2023-12-26T01:12:00,mfh,15.62
2023-12-26T01:13:00,mfh,15.43
2023-12-26T01:14:00,mfh,15.39
2023-12-26T01:15:00,mfh,14.85
2023-12-26T01:16:00,mfh,15.21
2023-12-26T01:17:00,mfh,14.87
2023-12-26T01:18:00,mfh,15.57
2023-12-26T01:19:00,mfh,15.30
2023-12-26T01:20:00,mfh,15.28
2023-12-26T01:21:00,mfh,15.24
2023-12-26T01:22:00,mfh,15.76
2023-12-26T01:23:00,mfh,15.26
2023-12-26T01:24:00,mfh,14.62
2023-12-26T01:25:00,mfh,14.73
2023-12-26T01:26:00,mfh,15.23
2023-12-26T01:27:00,mfh,15.76
2023-12-26T01:28:00,mfh,15.39
2023-12-26T01:29:00,mfh,15.74
2023-12-26T01:30:00,mfh,16.41
2023-12-26T01:31:00,mfh,15.56
2023-12-26T01:32:00,mfh,15.50
2023-12-26T01:33:00,mfh,14.76
2023-12-26T01:34:00,mfh,15.35
2023-12-26T01:35:00,mfh,14.97
2023-12-26T01:36:00,mfh,17.64
2023-12-26T01:37:00,mfh,17.61
2023-12-26T01:38:00,mfh,17.57
2023-12-26T01:39:00,mfh,17.55
2023-12-26T01:40:00,mfh,17.57
2023-12-26T01:41:00,mfh,17.58
2023-12-26T01:42:00,mfh,17.04
2023-12-26T01:43:00,mfh,17.04
2023-12-26T01:44:00,mfh,16.82
2023-12-26T01:45:00,mfh,17.58
2023-12-26T01:46:00,mfh,17.42
2023-12-26T01:47:00,mfh,17.42
2023-12-26T01:48:00,mfh,17.64
2023-12-26T01:49:00,mfh,17.53
2023-12-26T01:50:00,mfh,17.50
2023-12-26T01:51:00,mfh,18.09
2023-12-26T01:52:00,mfh,16.90
2023-12-26T01:53:00,mfh,16.88
2023-12-26T01:54:00,mfh,16.88
2023-12-26T01:55:00,mfh,17.73
2023-12-26T01:56:00,mfh,17.57
2023-12-26T01:57:00,mfh,17.49
2023-12-26T01:58:00,mfh,17.46
2023-12-26T01:59:00,mfh,17.49
2023-12-26T02:00:00,mfh,17.34
2023-12-26T02:01:00,mfh,16.70
2023-12-26T02:02:00,mfh,16.68
2023-12-26T02:03:00,mfh,16.53
2023-12-26T02:04:00,mfh,17.17
2023-12-26T02:05:00,mfh,17.81
2023-12-26T02:06:00,mfh,17.34
2023-12-26T02:07:00,mfh,17.60
2023-12-26T02:08:00,mfh,17.56
2023-12-26T02:09:00,mfh,15.53
2023-12-26T02:10:00,mfh,14.81
2023-12-26T02:11:00,mfh,14.65
2023-12-26T02:12:00,mfh,14.59
2023-12-26T02:13:00,mfh,15.84
2023-12-26T02:14:00,mfh,15.99
2023-12-26T02:15:00,mfh,14.64
2023-12-26T02:16:00,mfh,14.72
2023-12-26T02:17:00,mfh,14.87
2023-12-26T02:18:00,mfh,15.73
2023-12-26T02:19:00,mfh,15.46
2023-12-26T02:20:00,mfh,15.90
2023-12-26T02:21:00,mfh,16.02
2023-12-26T02:22:00,mfh,15.44
2023-12-26T02:23:00,mfh,15.51
2023-12-26T02:24:00,mfh,14.97
2023-12-26T02:25:00,mfh,14.55
2023-12-26T02:26:00,mfh,15.45
2023-12-26T02:27:00,mfh,15.14
2023-12-26T02:28:00,mfh,15.21
2023-12-26T02:29:00,mfh,15.24
2023-12-26T02:30:00,mfh,15.39
2023-12-26T02:31:00,mfh,15.35
2023-12-26T02:32:00,mfh,15.44
2023-12-26T02:33:00,mfh,15.33
2023-12-26T02:34:00,mfh,14.67
2023-12-26T02:35:00,mfh,15.36
2023-12-26T02:36:00,mfh,14.82
2023-12-26T02:37:00,mfh,15.29
2023-12-26T02:38:00,mfh,15.29
2023-12-26T02:39:00,mfh,15.36
2023-12-26T02:40:00,mfh,15.31
2023-12-26T02:41:00,mfh,15.29
2023-12-26T02:42:00,mfh,15.45
2023-12-26T02:43:00,mfh,14.69
2023-12-26T02:44:00,mfh,14.65
2023-12-26T02:45:00,mfh,14.46
2023-12-26T02:46:00,mfh,15.08
2023-12-26T02:47:00,mfh,15.24
2023-12-26T02:48:00,mfh,15.40
2023-12-26T02:49:00,mfh,15.39
2023-12-26T02:50:00,mfh,15.22
2023-12-26T02:51:00,mfh,15.12
2023-12-26T02:52:00,mfh,14.91
2023-12-26T02:53:00,mfh,14.37
2023-12-26T02:54:00,mfh,14.46
2023-12-26T02:55:00,mfh,14.45
2023-12-26T02:56:00,mfh,15.12
2023-12-26T02:57:00,mfh,15.05
2023-12-26T02:58:00,mfh,15.03
2023-12-26T02:59:00,mfh,15.72
2023-12-26T03:00:00,mfh,15.11
2023-12-26T03:01:00,mfh,14.60
2023-12-26T03:02:00,mfh,14.58
2023-12-26T03:03:00,mfh,15.20
2023-12-26T03:04:00,mfh,15.32
2023-12-26T03:05:00,mfh,15.97
2023-12-26T03:06:00,mfh,16.14
2023-12-26T03:07:00,mfh,16.15
2023-12-26T03:08:00,mfh,16.45
2023-12-26T03:09:00,mfh,17.66
2023-12-26T03:10:00,mfh,17.72
2023-12-26T03:11:00,mfh,16.89
2023-12-26T03:12:00,mfh,17.22
2023-12-26T03:13:00,mfh,17.05
2023-12-26T03:14:00,mfh,17.75
2023-12-26T03:15:00,mfh,17.78
2023-12-26T03:16:00,mfh,18.05
2023-12-26T03:17:00,mfh,17.50
2023-12-26T03:18:00,mfh,17.57
2023-12-26T03:19:00,mfh,17.46
2023-12-26T03:20:00,mfh,16.76
2023-12-26T03:21:00,mfh,16.66
2023-12-26T03:22:00,mfh,16.68
2023-12-26T03:23:00,mfh,17.23
2023-12-26T03:24:00,mfh,17.32
2023-12-26T03:25:00,mfh,17.25
2023-12-26T03:26:00,mfh,17.32
2023-12-26T03:27:00,mfh,17.14
2023-12-26T03:28:00,mfh,17.33
2023-12-26T03:29:00,mfh,17.35
2023-12-26T03:30:00,mfh,16.64
2023-12-26T03:31:00,mfh,17.04
2023-12-26T03:32:00,mfh,16.71
2023-12-26T03:33:00,mfh,16.62
2023-12-26T03:34:00,mfh,17.16
2023-12-26T03:35:00,mfh,17.12
2023-12-26T03:36:00,mfh,17.12
2023-12-26T03:37:00,mfh,17.19
2023-12-26T03:38:00,mfh,17.13
2023-12-26T03:39:00,mfh,16.45
2023-12-26T03:40:00,mfh,16.34
2023-12-26T03:41:00,mfh,16.46
2023-12-26T03:42:00,mfh,17.37
2023-12-26T03:43:00,mfh,15.01
2023-12-26T03:44:00,mfh,15.16
2023-12-26T03:45:00,mfh,15.05
2023-12-26T03:46:00,mfh,15.06
2023-12-26T03:47:00,mfh,15.09
2023-12-26T03:48:00,mfh,14.43
2023-12-26T03:49:00,mfh,15.02
2023-12-26T03:50:00,mfh,14.55
2023-12-26T03:51:00,mfh,14.58
2023-12-26T03:52:00,mfh,15.16
2023-12-26T03:53:00,mfh,15.14
2023-12-26T03:54:00,mfh,15.41
2023-12-26T03:55:00,mfh,15.41
2023-12-26T03:56:00,mfh,15.40
2023-12-26T03:57:00,mfh,15.32
2023-12-26T03:58:00,mfh,14.62
2023-12-26T03:59:00,mfh,14.68
2023-12-26T04:00:00,mfh,14.68
2023-12-26T04:01:00,mfh,15.32
2023-12-26T04:02:00,mfh,15.70
2023-12-26T04:03:00,mfh,15.28
2023-12-26T04:04:00,mfh,15.35
2023-12-26T04:05:00,mfh,15.56
2023-12-26T04:06:00,mfh,15.67
2023-12-26T04:07:00,mfh,15.97
2023-12-26T04:08:00,mfh,15.28
2023-12-26T04:09:00,mfh,15.10
2023-12-26T04:10:00,mfh,15.01
2023-12-26T04:11:00,mfh,15.72
2023-12-26T04:12:00,mfh,15.75
2023-12-26T04:13:00,mfh,15.78
2023-12-26T04:14:00,mfh,15.76
2023-12-26T04:15:00,mfh,15.96
2023-12-26T04:16:00,mfh,16.26
2023-12-26T04:17:00,mfh,15.52
2023-12-26T04:18:00,mfh,15.01
2023-12-26T04:19:00,mfh,15.12
2023-12-26T04:20:00,mfh,16.02
2023-12-26T04:21:00,mfh,15.96
2023-12-26T04:22:00,mfh,15.92
2023-12-26T04:23:00,mfh,15.85
2023-12-26T04:24:00,mfh,15.82
2023-12-26T04:25:00,mfh,15.95
2023-12-26T04:26:00,mfh,15.77
2023-12-26T04:27:00,mfh,15.04
2023-12-26T04:28:00,mfh,15.03
2023-12-26T04:29:00,mfh,15.00
2023-12-26T04:30:00,mfh,15.61
2023-12-26T04:31:00,mfh,15.83
2023-12-26T04:32:00,mfh,15.77
2023-12-26T04:33:00,mfh,15.74
2023-12-26T04:34:00,mfh,15.80
2023-12-26T04:35:00,mfh,15.64
2023-12-26T04:36:00,mfh,15.17
2023-12-26T04:37:00,mfh,14.84
2023-12-26T04:38:00,mfh,14.81
2023-12-26T04:39:00,mfh,15.38
2023-12-26T04:40:00,mfh,15.54
2023-12-26T04:41:00,mfh,15.52
2023-12-26T04:42:00,mfh,15.54
2023-12-26T04:43:00,mfh,16.48
2023-12-26T04:44:00,mfh,16.99
2023-12-26T04:45:00,mfh,18.83
2023-12-26T04:46:00,mfh,18.45
2023-12-26T04:47:00,mfh,18.72
2023-12-26T04:48:00,mfh,18.86
2023-12-26T04:49:00,mfh,19.98
2023-12-26T04:50:00,mfh,19.08
2023-12-26T04:51:00,mfh,19.23
2023-12-26T04:52:00,mfh,19.16
2023-12-26T04:53:00,mfh,19.28
2023-12-26T04:54:00,mfh,19.53
2023-12-26T04:55:00,mfh,18.57
2023-12-26T04:56:00,mfh,18.50
2023-12-26T04:57:00,mfh,18.55
2023-12-26T04:58:00,mfh,19.11
2023-12-26T04:59:00,mfh,19.10
2023-12-26T05:00:00,mfh,19.85
2023-12-26T05:01:00,mfh,19.23
2023-12-26T05:02:00,mfh,19.00
2023-12-26T05:03:00,mfh,18.95
2023-12-26T05:04:00,mfh,18.30
2023-12-26T05:05:00,mfh,18.24
2023-12-26T05:06:00,mfh,18.29
2023-12-26T05:07:00,mfh,18.92
2023-12-26T05:08:00,mfh,18.96
2023-12-26T05:09:00,mfh,20.02
2023-12-26T05:10:00,mfh,19.11
2023-12-26T05:11:00,mfh,19.07
2023-12-26T05:12:00,mfh,19.28
2023-12-26T05:13:00,mfh,18.71
2023-12-26T05:14:00,mfh,18.64
2023-12-26T05:15:00,mfh,18.65
2023-12-26T05:16:00,mfh,19.02
2023-12-26T05:17:00,mfh,19.03
2023-12-26T05:18:00,mfh,16.89
2023-12-26T05:19:00,mfh,17.00
2023-12-26T05:20:00,mfh,17.04
2023-12-26T05:21:00,mfh,17.20
2023-12-26T05:22:00,mfh,16.94
2023-12-26T05:23:00,mfh,16.28
2023-12-26T05:24:00,mfh,16.28
2023-12-26T05:25:00,mfh,16.28
2023-12-26T05:26:00,mfh,16.35
2023-12-26T05:27:00,mfh,17.09
2023-12-26T05:28:00,mfh,17.19
2023-12-26T05:29:00,mfh,17.03
2023-12-26T05:30:00,mfh,17.04
2023-12-26T05:31:00,mfh,17.46
2023-12-26T05:32:00,mfh,17.66
2023-12-26T05:33:00,mfh,17.00
2023-12-26T05:34:00,mfh,17.02
2023-12-26T05:35:00,mfh,16.43
2023-12-26T05:36:00,mfh,16.94
2023-12-26T05:37:00,mfh,17.10
2023-12-26T05:38:00,mfh,17.06
2023-12-26T05:39:00,mfh,17.05
2023-12-26T05:40:00,mfh,17.38
2023-12-26T05:41:00,mfh,17.78
2023-12-26T05:42:00,mfh,16.60
2023-12-26T05:43:00,mfh,16.41
2023-12-26T05:44:00,mfh,16.75
2023-12-26T05:45:00,mfh,16.59
2023-12-26T05:46:00,mfh,16.98
2023-12-26T05:47:00,mfh,17.41
2023-12-26T05:48:00,mfh,17.47
2023-12-26T05:49:00,mfh,17.49
2023-12-26T05:50:00,mfh,17.04
2023-12-26T05:51:00,mfh,17.12
2023-12-26T05:52:00,mfh,16.56
2023-12-26T05:53:00,mfh,17.01
2023-12-26T05:54:00,mfh,16.45
2023-12-26T05:55:00,mfh,16.90
2023-12-26T05:56:00,mfh,16.99
2023-12-26T05:57:00,mfh,17.03
2023-12-26T05:58:00,mfh,16.94
2023-12-26T05:59:00,mfh,18.08
2023-12-26T06:00:00,mfh,17.67
2023-12-26T06:01:00,mfh,35.78
2023-12-26T06:02:00,mfh,35.81
2023-12-26T06:03:00,mfh,36.20
2023-12-26T06:04:00,mfh,35.57
2023-12-26T06:05:00,mfh,35.56
2023-12-26T06:06:00,mfh,35.16
2023-12-26T06:07:00,mfh,35.38
2023-12-26T06:08:00,mfh,35.58
2023-12-26T06:09:00,mfh,35.02
2023-12-26T06:10:00,mfh,35.04
2023-12-26T06:11:00,mfh,35.02
2023-12-26T06:12:00,mfh,34.90
2023-12-26T06:13:00,mfh,35.36
2023-12-26T06:14:00,mfh,35.32
2023-12-26T06:15:00,mfh,35.27
2023-12-26T06:16:00,mfh,35.55
2023-12-26T06:17:00,mfh,34.89
2023-12-26T06:18:00,mfh,36.78
2023-12-26T06:19:00,mfh,36.78
2023-12-26T06:20:00,mfh,37.68
2023-12-26T06:21:00,mfh,37.45
2023-12-26T06:22:00,mfh,37.48
2023-12-26T06:23:00,mfh,37.79
2023-12-26T06:24:00,mfh,37.40
2023-12-26T06:25:00,mfh,37.34
2023-12-26T06:26:00,mfh,37.37
2023-12-26T06:27:00,mfh,37.28
2023-12-26T06:28:00,mfh,37.34
2023-12-26T06:29:00,mfh,37.95
2023-12-26T06:30:00,mfh,37.95
2023-12-26T06:31:00,mfh,37.53
2023-12-26T06:32:00,mfh,39.07
2023-12-26T06:33:00,mfh,37.03
2023-12-26T06:34:00,mfh,37.09
2023-12-26T06:35:00,mfh,37.71
2023-12-26T06:36:00,mfh,37.87
2023-12-26T06:37:00,mfh,37.65
2023-12-26T06:38:00,mfh,37.64
2023-12-26T06:39:00,mfh,38.15
2023-12-26T06:40:00,mfh,38.17
2023-12-26T06:41:00,mfh,37.71
2023-12-26T06:42:00,mfh,37.50
2023-12-26T06:43:00,mfh,37.91
2023-12-26T06:44:00,mfh,37.59
2023-12-26T06:45:00,mfh,37.50
2023-12-26T06:46:00,mfh,37.83
2023-12-26T06:47:00,mfh,37.12
2023-12-26T06:48:00,mfh,36.88
2023-12-26T06:49:00,mfh,36.89
2023-12-26T06:50:00,mfh,37.51
2023-12-26T06:51:00,mfh,35.53
2023-12-26T06:52:00,mfh,35.55
2023-12-26T06:53:00,mfh,35.55
2023-12-26T06:54:00,mfh,35.74
2023-12-26T06:55:00,mfh,35.79
2023-12-26T06:56:00,mfh,35.82
2023-12-26T06:57:00,mfh,36.50
2023-12-26T06:58:00,mfh,35.72
2023-12-26T06:59:00,mfh,35.78
2023-12-26T07:00:00,mfh,35.68
2023-12-26T07:01:00,mfh,35.43
2023-12-26T07:02:00,mfh,35.30
2023-12-26T07:03:00,mfh,35.27
2023-12-26T07:04:00,mfh,34.60
2023-12-26T07:05:00,mfh,34.58
2023-12-26T07:06:00,mfh,35.14
2023-12-26T07:07:00,mfh,35.95
2023-12-26T07:08:00,mfh,35.17
2023-12-26T07:09:00,mfh,35.32
2023-12-26T07:10:00,mfh,35.30
2023-12-26T07:11:00,mfh,35.42
2023-12-26T07:12:00,mfh,35.54
2023-12-26T07:13:00,mfh,35.59
2023-12-26T07:14:00,mfh,35.65
2023-12-26T07:15:00,mfh,35.30
2023-12-26T07:16:00,mfh,35.28
2023-12-26T07:17:00,mfh,34.73
2023-12-26T07:18:00,mfh,34.72
2023-12-26T07:19:00,mfh,34.12
2023-12-26T07:20:00,mfh,35.01
2023-12-26T07:21:00,mfh,35.22
2023-12-26T07:22:00,mfh,34.74
2023-12-26T07:23:00,mfh,34.84
2023-12-26T07:24:00,mfh,35.93
2023-12-26T07:25:00,mfh,36.08
2023-12-26T07:26:00,mfh,36.71
2023-12-26T07:27:00,mfh,36.50
2023-12-26T07:28:00,mfh,36.13
2023-12-26T07:29:00,mfh,36.17
2023-12-26T07:30:00,mfh,36.06
2023-12-26T07:31:00,mfh,34.53
2023-12-26T07:32:00,mfh,34.44
2023-12-26T07:33:00,mfh,34.55
2023-12-26T07:34:00,mfh,34.65
2023-12-26T07:35:00,mfh,33.73
2023-12-26T07:36:00,mfh,33.74
2023-12-26T07:37:00,mfh,34.06
2023-12-26T07:38:00,mfh,34.62
2023-12-26T07:39:00,mfh,34.73
2023-12-26T07:40:00,mfh,34.77
2023-12-26T07:41:00,mfh,34.60
2023-12-26T07:42:00,mfh,34.77
2023-12-26T07:43:00,mfh,34.83
2023-12-26T07:44:00,mfh,34.73
2023-12-26T07:45:00,mfh,35.00
2023-12-26T07:46:00,mfh,34.85
2023-12-26T07:47:00,mfh,34.84
2023-12-26T07:48:00,mfh,34.86
2023-12-26T07:49:00,mfh,34.05
2023-12-26T07:50:00,mfh,34.12
2023-12-26T07:51:00,mfh,34.53
2023-12-26T07:52:00,mfh,34.87
2023-12-26T07:53:00,mfh,34.48
2023-12-26T07:54:00,mfh,34.30
2023-12-26T07:55:00,mfh,34.23
2023-12-26T07:56:00,mfh,36.45
2023-12-26T07:57:00,mfh,36.22
2023-12-26T07:58:00,mfh,36.54
2023-12-26T07:59:00,mfh,36.68
2023-12-26T08:00:00,mfh,36.16
2023-12-26T08:01:00,mfh,36.22
2023-12-26T08:02:00,mfh,36.18
2023-12-26T08:03:00,mfh,36.41
2023-12-26T08:04:00,mfh,36.61
2023-12-26T08:05:00,mfh,36.81
2023-12-26T08:06:00,mfh,36.27
2023-12-26T08:07:00,mfh,35.71
2023-12-26T08:08:00,mfh,35.72
2023-12-26T08:09:00,mfh,36.62
2023-12-26T08:10:00,mfh,36.47
2023-12-26T08:11:00,mfh,36.30
2023-12-26T08:12:00,mfh,36.28
2023-12-26T08:13:00,mfh,36.41
2023-12-26T08:14:00,mfh,36.43
2023-12-26T08:15:00,mfh,36.32
2023-12-26T08:16:00,mfh,36.61
2023-12-26T08:17:00,mfh,36.30
2023-12-26T08:18:00,mfh,36.24
2023-12-26T08:19:00,mfh,36.21
2023-12-26T08:20:00,mfh,36.02
2023-12-26T08:21:00,mfh,36.22
2023-12-26T08:22:00,mfh,36.34
2023-12-26T08:23:00,mfh,36.25
2023-12-26T08:24:00,mfh,36.42
2023-12-26T08:25:00,mfh,37.27
2023-12-26T08:26:00,mfh,36.44
2023-12-26T08:27:00,mfh,36.41
2023-12-26T08:28:00,mfh,34.41
2023-12-26T08:29:00,mfh,34.45
2023-12-26T08:30:00,mfh,34.32
2023-12-26T08:31:00,mfh,34.56
2023-12-26T08:32:00,mfh,34.84
2023-12-26T08:33:00,mfh,34.91
2023-12-26T08:34:00,mfh,34.14
2023-12-26T08:35:00,mfh,34.07
2023-12-26T08:36:00,mfh,34.08
2023-12-26T08:37:00,mfh,34.80
2023-12-26T08:38:00,mfh,34.77
2023-12-26T08:39:00,mfh,35.13
2023-12-26T08:40:00,mfh,34.91
2023-12-26T08:41:00,mfh,35.26
2023-12-26T08:42:00,mfh,34.69
2023-12-26T08:43:00,mfh,34.36
2023-12-26T08:44:00,mfh,34.56
2023-12-26T08:45:00,mfh,34.72
2023-12-26T08:46:00,mfh,34.04
2023-12-26T08:47:00,mfh,33.97
2023-12-26T08:48:00,mfh,33.87
2023-12-26T08:49:00,mfh,34.56
2023-12-26T08:50:00,mfh,34.59
2023-12-26T08:51:00,mfh,34.49
2023-12-26T08:52:00,mfh,34.55
2023-12-26T08:53:00,mfh,34.55
2023-12-26T08:54:00,mfh,34.54
2023-12-26T08:55:00,mfh,34.51
2023-12-26T08:56:00,mfh,34.47
2023-12-26T08:57:00,mfh,34.42
2023-12-26T08:58:00,mfh,34.54
2023-12-26T08:59:00,mfh,34.87
2023-12-26T09:00:00,mfh,34.82
2023-12-26T09:01:00,mfh,33.86
2023-12-26T09:02:00,mfh,33.85
2023-12-26T09:03:00,mfh,34.07
2023-12-26T09:04:00,mfh,34.52
2023-12-26T09:05:00,mfh,34.67
2023-12-26T09:06:00,mfh,34.59
2023-12-26T09:07:00,mfh,34.44
2023-12-26T09:08:00,mfh,34.45
2023-12-26T09:09:00,mfh,34.75
2023-12-26T09:10:00,mfh,34.68
2023-12-26T09:11:00,mfh,34.82
2023-12-26T09:12:00,mfh,34.65
2023-12-26T09:13:00,mfh,33.75
2023-12-26T09:14:00,mfh,33.48
2023-12-26T09:15:00,mfh,33.69
2023-12-26T09:16:00,mfh,34.24
2023-12-26T09:17:00,mfh,34.27
2023-12-26T09:18:00,mfh,34.38
2023-12-26T09:19:00,mfh,34.39
2023-12-26T09:20:00,mfh,34.48
2023-12-26T09:21:00,mfh,35.12
2023-12-26T09:22:00,mfh,35.23
2023-12-26T09:23:00,mfh,35.17
2023-12-26T09:24:00,mfh,35.18
2023-12-26T09:25:00,mfh,35.49
2023-12-26T09:26:00,mfh,35.57
2023-12-26T09:27:00,mfh,34.73
2023-12-26T09:28:00,mfh,34.02
2023-12-26T09:29:00,mfh,34.00
2023-12-26T09:30:00,mfh,34.00
2023-12-26T09:31:00,mfh,34.56
2023-12-26T09:32:00,mfh,34.66
2023-12-26T09:33:00,mfh,34.69
2023-12-26T09:34:00,mfh,36.75
2023-12-26T09:35:00,mfh,36.71
2023-12-26T09:36:00,mfh,36.80
2023-12-26T09:37:00,mfh,36.71
2023-12-26T09:38:00,mfh,37.75
2023-12-26T09:39:00,mfh,36.70
2023-12-26T09:40:00,mfh,36.81
2023-12-26T09:41:00,mfh,36.03
2023-12-26T09:42:00,mfh,35.99
2023-12-26T09:43:00,mfh,36.66
2023-12-26T09:44:00,mfh,36.57
2023-12-26T09:45:00,mfh,36.70
2023-12-26T09:46:00,mfh,36.66
2023-12-26T09:47:00,mfh,36.62
2023-12-26T09:48:00,mfh,36.68
2023-12-26T09:49:00,mfh,36.57
2023-12-26T09:50:00,mfh,36.66
2023-12-26T09:51:00,mfh,36.52
2023-12-26T09:52:00,mfh,36.74
2023-12-26T09:53:00,mfh,36.77
2023-12-26T09:54:00,mfh,36.68
2023-12-26T09:55:00,mfh,36.64
2023-12-26T09:56:00,mfh,35.91
2023-12-26T09:57:00,mfh,35.91
2023-12-26T09:58:00,mfh,36.67
2023-12-26T09:59:00,mfh,36.65
2023-12-26T10:00:00,mfh,36.90
2023-12-26T10:01:00,mfh,36.88
2023-12-26T10:02:00,mfh,36.80
2023-12-26T10:03:00,mfh,36.85
2023-12-26T10:04:00,mfh,36.87
2023-12-26T10:05:00,mfh,37.87
2023-12-26T10:06:00,mfh,37.11
2023-12-26T10:07:00,mfh,34.97
2023-12-26T10:08:00,mfh,34.36
2023-12-26T10:09:00,mfh,34.42
2023-12-26T10:10:00,mfh,34.49
2023-12-26T10:11:00,mfh,34.72
2023-12-26T10:12:00,mfh,34.76
2023-12-26T10:13:00,mfh,35.01
2023-12-26T10:14:00,mfh,34.81
2023-12-26T10:15:00,mfh,34.60
2023-12-26T10:16:00,mfh,34.70
2023-12-26T10:17:00,mfh,34.73
2023-12-26T10:18:00,mfh,36.25
2023-12-26T10:19:00,mfh,35.75
2023-12-26T10:20:00,mfh,34.97
2023-12-26T10:21:00,mfh,34.71
2023-12-26T10:22:00,mfh,34.98
2023-12-26T10:23:00,mfh,34.88
2023-12-26T10:24:00,mfh,35.18
2023-12-26T10:25:00,mfh,35.03
2023-12-26T10:26:00,mfh,35.10
2023-12-26T10:27:00,mfh,35.44
2023-12-26T10:28:00,mfh,35.71
2023-12-26T10:29:00,mfh,35.66
2023-12-26T10:30:00,mfh,35.28
2023-12-26T10:31:00,mfh,35.46
2023-12-26T10:32:00,mfh,35.20
2023-12-26T10:33:00,mfh,35.08
2023-12-26T10:34:00,mfh,35.14
2023-12-26T10:35:00,mfh,35.15
2023-12-26T10:36:00,mfh,34.40
2023-12-26T10:37:00,mfh,34.21
2023-12-26T10:38:00,mfh,34.33
2023-12-26T10:39:00,mfh,34.79
2023-12-26T10:40:00,mfh,34.80
2023-12-26T10:41:00,mfh,34.66
2023-12-26T10:42:00,mfh,34.82
2023-12-26T10:43:00,mfh,34.78
2023-12-26T10:44:00,mfh,34.82
2023-12-26T10:45:00,mfh,34.91
2023-12-26T10:46:00,mfh,34.93
2023-12-26T10:47:00,mfh,34.88
2023-12-26T10:48:00,mfh,33.91
2023-12-26T10:49:00,mfh,34.13
2023-12-26T10:50:00,mfh,34.14
2023-12-26T10:51:00,mfh,34.12
2023-12-26T10:52:00,mfh,33.83
2023-12-26T10:53:00,mfh,33.64
2023-12-26T10:54:00,mfh,33.68
2023-12-26T10:55:00,mfh,34.32
2023-12-26T10:56:00,mfh,34.82
2023-12-26T10:57:00,mfh,34.36
2023-12-26T10:58:00,mfh,34.83
2023-12-26T10:59:00,mfh,34.41
2023-12-26T11:00:00,mfh,34.49
2023-12-26T11:01:00,mfh,34.23
2023-12-26T11:02:00,mfh,34.36
2023-12-26T11:03:00,mfh,34.45
2023-12-26T11:04:00,mfh,33.48
2023-12-26T11:05:00,mfh,33.42
2023-12-26T11:06:00,mfh,33.37
2023-12-26T11:07:00,mfh,34.33
2023-12-26T11:08:00,mfh,34.42
2023-12-26T11:09:00,mfh,34.42
2023-12-26T11:10:00,mfh,34.47
2023-12-26T11:11:00,mfh,34.10
2023-12-26T11:12:00,mfh,34.21
2023-12-26T11:13:00,mfh,34.30
2023-12-26T11:14:00,mfh,34.18
2023-12-26T11:15:00,mfh,34.29
2023-12-26T11:16:00,mfh,34.36
2023-12-26T11:17:00,mfh,36.39
2023-12-26T11:18:00,mfh,36.96
2023-12-26T11:19:00,mfh,36.16
2023-12-26T11:20:00,mfh,35.62
2023-12-26T11:21:00,mfh,35.43
2023-12-26T11:22:00,mfh,35.38
2023-12-26T11:23:00,mfh,36.26
2023-12-26T11:24:00,mfh,36.26
2023-12-26T11:25:00,mfh,36.41
2023-12-26T11:26:00,mfh,36.45
2023-12-26T11:27:00,mfh,36.07
2023-12-26T11:28:00,mfh,36.42
2023-12-26T11:29:00,mfh,36.00
2023-12-26T11:30:00,mfh,36.05
2023-12-26T11:31:00,mfh,36.12
2023-12-26T11:32:00,mfh,35.62
2023-12-26T11:33:00,mfh,35.53
2023-12-26T11:34:00,mfh,35.54
2023-12-26T11:35:00,mfh,36.12
2023-12-26T11:36:00,mfh,36.13
2023-12-26T11:37:00,mfh,36.65
2023-12-26T11:38:00,mfh,36.23
2023-12-26T11:39:00,mfh,36.54
2023-12-26T11:40:00,mfh,36.18
2023-12-26T11:41:00,mfh,37.40
2023-12-26T11:42:00,mfh,36.05
2023-12-26T11:43:00,mfh,35.56
2023-12-26T11:44:00,mfh,35.98
2023-12-26T11:45:00,mfh,35.80
2023-12-26T11:46:00,mfh,35.81
2023-12-26T11:47:00,mfh,33.79
2023-12-26T11:48:00,mfh,33.32
2023-12-26T11:49:00,mfh,33.91
2023-12-26T11:50:00,mfh,33.26
2023-12-26T11:51:00,mfh,33.90
2023-12-26T11:52:00,mfh,34.07
2023-12-26T11:53:00,mfh,34.54
2023-12-26T11:54:00,mfh,33.97
2023-12-26T11:55:00,mfh,33.86
2023-12-26T11:56:00,mfh,29.76
2023-12-26T11:57:00,mfh,29.73
2023-12-26T11:58:00,mfh,29.97
2023-12-26T11:59:00,mfh,29.82
2023-12-26T12:00:00,mfh,29.17
2023-12-26T12:01:00,mfh,29.32
2023-12-26T12:02:00,mfh,29.21
2023-12-26T12:03:00,mfh,29.85
2023-12-26T12:04:00,mfh,29.79
2023-12-26T12:05:00,mfh,29.90
2023-12-26T12:06:00,mfh,29.86
2023-12-26T12:07:00,mfh,29.80
2023-12-26T12:08:00,mfh,29.79
2023-12-26T12:09:00,mfh,29.56
2023-12-26T12:10:00,mfh,29.68
2023-12-26T12:11:00,mfh,29.71
2023-12-26T12:12:00,mfh,29.70
2023-12-26T12:13:00,mfh,29.81
2023-12-26T12:14:00,mfh,29.95
2023-12-26T12:15:00,mfh,29.08
2023-12-26T12:16:00,mfh,28.84
2023-12-26T12:17:00,mfh,29.30
2023-12-26T12:18:00,mfh,29.85
2023-12-26T12:19:00,mfh,30.04
2023-12-26T12:20:00,mfh,28.67
2023-12-26T12:21:00,mfh,28.62
2023-12-26T12:22:00,mfh,28.59
2023-12-26T12:23:00,mfh,29.15
2023-12-26T12:24:00,mfh,29.27
2023-12-26T12:25:00,mfh,29.35
2023-12-26T12:26:00,mfh,33.61
2023-12-26T12:27:00,mfh,37.33
2023-12-26T12:28:00,mfh,37.31
2023-12-26T12:29:00,mfh,37.53
2023-12-26T12:30:00,mfh,37.71
2023-12-26T12:31:00,mfh,37.41
2023-12-26T12:32:00,mfh,37.58
2023-12-26T12:33:00,mfh,36.83
2023-12-26T12:34:00,mfh,36.71
2023-12-26T12:35:00,mfh,36.71
2023-12-26T12:36:00,mfh,37.37
2023-12-26T12:37:00,mfh,37.45
2023-12-26T12:38:00,mfh,37.40
2023-12-26T12:39:00,mfh,37.31
2023-12-26T12:40:00,mfh,37.34
2023-12-26T12:41:00,mfh,37.50
2023-12-26T12:42:00,mfh,33.32
2023-12-26T12:43:00,mfh,29.98
2023-12-26T12:44:00,mfh,29.74
2023-12-26T12:45:00,mfh,29.74
2023-12-26T12:46:00,mfh,30.09
2023-12-26T12:47:00,mfh,29.91
2023-12-26T12:48:00,mfh,29.19
2023-12-26T12:49:00,mfh,29.24
2023-12-26T12:50:00,mfh,30.45
2023-12-26T12:51:00,mfh,30.91
2023-12-26T12:52:00,mfh,30.74
2023-12-26T12:53:00,mfh,30.68
2023-12-26T12:54:00,mfh,30.53
2023-12-26T12:55:00,mfh,30.47
2023-12-26T12:56:00,mfh,30.55
2023-12-26T12:57:00,mfh,30.49
2023-12-26T12:58:00,mfh,30.63
2023-12-26T12:59:00,mfh,30.76
2023-12-26T13:00:00,mfh,30.92
2023-12-26T13:01:00,mfh,29.92
2023-12-26T13:02:00,mfh,29.96
2023-12-26T13:03:00,mfh,30.00
2023-12-26T13:04:00,mfh,31.19
2023-12-26T13:05:00,mfh,30.96
2023-12-26T13:06:00,mfh,31.02
2023-12-26T13:07:00,mfh,31.63
2023-12-26T13:08:00,mfh,31.82
2023-12-26T13:09:00,mfh,31.84
2023-12-26T13:10:00,mfh,32.09
2023-12-26T13:11:00,mfh,30.64
2023-12-26T13:12:00,mfh,31.28
2023-12-26T13:13:00,mfh,30.25
2023-12-26T13:14:00,mfh,29.98
2023-12-26T13:15:00,mfh,39.85
2023-12-26T13:16:00,mfh,31.12
2023-12-26T13:17:00,mfh,31.76
2023-12-26T13:18:00,mfh,31.59
2023-12-26T13:19:00,mfh,32.05